Location: Boiro
(42.6475°N, 8.8834°W)
Time: 16:20:30
(UTC+01:00)

Vanguard 1 Rocket - Pass Details

Date: 07 December 2021
Orbit: 651 x 4224 km, 34.3° (Epoch: 22 January)

Event Time Altitude Azimuth Distance (km) Brightness Sun altitude
Rises 05:54:40 0° 264° (W) 4,886 - -31.8°
Reaches altitude 10° 05:57:16 10° 261° (W) 4,234 - -31.3°
Exits shadow 06:03:31 41° 243° (WSW) 3,146 9.6 -30.2°
Maximum altitude 06:09:32 63° 184° (S) 3,102 9.9 -29.1°
Drops below altitude 10° 06:32:06 10° 111° (ESE) 7,242 13.0 -24.9°
Sets 06:38:20 0° 109° (ESE) 8,435 13.7 -23.8°
